Temperature
20 20 20 20 19 19 19 19 19 18 18 18 18 18 18 18 18 18 18 18 17 17 17 17 17 17 17 17 17 17 17 16 16 17 17 17 17 17 16 16 16 16 16
20 19 19 19 19 19 19 19 18 18 18 18 18 18 18 18 18 18 17 17 17 17 17 17 17 17 17 17 17 17 16 16 16 16 16 16 16 16 16 16 16 16 16
19 19 19 19 19 19 18 18 18 18 18 18 17 17 17 17 17 17 17 17 17 17 17 17 17 17 17 17 17 16 16 16 16 16 16 16 16 16 16 16 16 16 16
19 19 19 19 18 18 18 18 18 18 17 17 17 17 17 17 17 17 17 17 17 17 17 17 17 17 16 16 16 16 16 16 16 16 16 16 15 15 15 15 15 15 15
19 19 19 18 18 18 18 18 18 17 17 17 17 17 17 17 17 17 17 17 17 17 17 17 16 16 16 16 16 16 16 16 15 15 15 15 15 15 15 15 15 15 15
18 18 18 18 17 17 17 17 17 17 17 17 17 17 17 16 16 16 16 16 16 16 16 16 16 16 16 16 15 15 15 15 15 15 15 15 15 14 14 14 14 14 14
18 17 17 17 17 17 16 16 16 16 16 16 16 16 16 16 16 16 16 16 16 16 16 16 16 16 16 15 15 15 15 15 15 15 14 14 14 14 14 14 14 14 14
17 17 17 17 17 16 16 16 16 16 16 16 16 16 16 16 16 16 16 16 16 15 15 15 15 15 15 15 15 15 15 15 15 14 14 14 14 14 14 13 13 13 13
17 17 17 16 16 16 16 16 16 16 16 16 16 16 16 16 16 16 15 15 15 15 15 15 15 15 15 14 14 14 14 14 14 14 14 14 13 13 13 13 13 13 13
16 16 16 16 16 16 16 16 15 15 16 15 15 15 15 15 15 15 15 15 15 15 15 14 14 14 14 14 14 14 14 14 14 14 13 13 13 13 13 13 13 12 12
16 16 15 15 15 15 15 15 15 15 15 15 15 15 15 15 15 15 15 14 14 14 14 14 14 14 13 13 13 13 13 13 13 13 13 13 13 13 13 12 12 12 12
15 15 15 15 15 15 15 15 15 15 15 15 15 15 14 14 14 14 14 14 14 14 14 14 13 13 13 13 13 13 13 13 13 12 12 12 12 12 12 12 12 12 11
15 15 15 15 15 15 14 14 14 14 14 14 14 14 14 14 14 14 14 14 14 14 13 13 13 13 12 13 13 12 12 12 12 12 12 12 12 11 11 11 11 11 11
15 15 14 14 14 14 14 14 14 14 14 13 13 13 13 13 13 13 13 13 13 13 13 13 12 12 12 12 12 12 12 12 12 11 11 11 11 11 11 11 11 10 10
14 14 14 14 14 14 14 14 13 13 13 13 13 13 13 13 13 13 13 13 13 13 12 12 12 12 12 12 11 11 11 11 11 11 11 11 11 11 10 10 10 10 10
14 14 14 14 14 14 13 13 13 13 13 13 12 12 12 12 12 12 12 12 12 12 12 12 12 11 11 11 11 11 11 11 11 11 10 10 10 10 10 10 9 9 9
14 14 14 14 13 13 13 13 13 13 12 12 12 12 12 12 12 12 12 12 12 11 11 11 11 11 11 11 11 11 11 10 10 10 10 10 10 9 9 9 9 9 9
13 13 13 13 13 13 12 12 12 12 12 12 12 12 12 12 12 11 11 11 11 11 11 11 11 11 11 10 10 10 10 10 10 10 9 9 9 9 9 9 9 8 8
13 13 13 12 12 12 12 12 12 11 11 11 11 11 11 11 11 11 11 11 10 10 10 10 10 10 10 10 10 10 10 10 9 9 9 9 9 8 8 8 8 8 8
12 12 12 12 12 12 11 11 11 11 11 11 11 11 11 10 10 10 10 10 9 9 9 9 9 9 9 9 9 9 9 9 9 9 8 8 8 8 8 8 8 8 8
12 12 12 12 11 11 11 11 11 11 10 10 10 10 10 10 10 9 9 9 9 9 9 9 9 9 9 9 9 9 9 9 8 8 8 8 8 8 8 8 8 8 7
11 11 11 11 11 11 11 11 10 10 10 10 10 10 10 9 9 9 9 9 9 9 9 9 9 9 9 8 8 8 8 8 8 8 8 8 7 7 7 7 7 7 7
11 11 11 11 10 10 10 10 10 10 10 10 10 9 9 9 9 9 9 9 9 9 9 9 9 8 8 8 8 8 8 8 7 7 7 7 7 7 7 7 7 7 7
11 10 10 10 10 10 10 10 10 9 9 9 9 9 9 9 9 9 9 9 9 8 8 8 8 8 8 8 8 8 7 7 7 7 7 7 7 7 7 7 7 6 6
10 10 10 10 10 10 10 9 9 9 9 9 9 9 9 9 8 8 8 8 8 8 8 8 8 8 7 7 7 7 7 7 7 7 7 6 6 6 6 6 6 6 6
10 10 10 10 9 9 9 9 9 9 9 9 9 8 8 8 8 8 8 8 8 8 8 7 7 7 7 7 7 7 7 7 6 6 6 6 6 6 6 6 6 6 6
Wind_Speed
5 4 4 4 4 4 4 5 5 5 4 5 5 4 5 5 5 5 5 5 6 6 6 6 6 5 4 4 4 4 4 4 6 5 2 3 3 3 3 3 3 3 3
5 4 4 3 3 3 4 4 3 4 4 5 5 5 5 5 5 5 6 6 6 7 6 6 6 5 5 4 4 5 5 5 5 6 4 2 3 3 3 3 3 3 3
4 4 3 3 3 4 4 3 2 3 3 3 4 4 5 4 4 5 6 6 6 7 6 7 6 6 6 5 5 5 5 4 4 4 4 2 2 2 2 3 3 3 4
3 3 4 4 4 4 4 3 3 2 2 3 3 4 4 5 5 5 6 6 6 6 6 6 6 6 6 6 5 6 5 4 4 4 3 3 3 2 2 3 3 3 3
3 4 5 4 3 2 3 3 2 3 3 3 3 3 4 4 5 5 5 5 4 5 5 5 5 6 6 6 5 5 4 4 3 3 4 3 3 3 3 3 4 4 4
3 4 3 2 2 2 3 3 3 3 3 3 3 3 3 4 4 6 5 4 4 4 4 3 3 3 4 4 5 5 5 5 5 4 4 4 5 4 4 4 3 3 3
2 2 2 2 3 3 3 3 3 4 3 3 3 3 4 4 4 5 5 4 4 3 3 2 2 1 2 2 2 3 3 4 5 5 5 5 5 4 4 5 4 4 5
1 1 2 2 2 2 2 3 3 3 4 4 4 4 4 4 4 5 5 4 4 4 3 3 3 2 1 2 1 2 2 3 4 4 5 6 6 5 5 5 5 4 3
1 2 2 2 2 2 2 3 3 3 3 3 3 3 3 3 3 4 5 3 3 3 3 3 3 3 2 2 2 2 3 3 2 3 3 4 4 4 3 2 2 2 4
3 3 2 2 2 2 3 3 2 2 3 3 3 3 4 4 4 4 4 3 3 2 2 2 3 3 3 2 3 3 4 4 3 3 3 3 3 2 3 4 4 3 3
3 2 1 1 2 2 2 2 2 2 2 2 3 3 3 4 4 4 5 4 4 4 3 3 2 4 4 4 4 5 5 4 2 2 2 3 2 2 2 2 3 4 4
1 1 2 2 2 1 1 2 2 2 2 2 2 3 3 2 2 3 4 5 5 4 4 3 3 3 4 3 3 4 4 2 1 1 2 2 2 2 2 2 2 3 3
1 2 2 2 2 1 2 2 2 2 2 2 2 3 3 2 2 3 3 4 5 4 3 3 3 3 2 2 2 2 2 2 1 1 2 2 2 2 2 2 2 2 2
2 2 2 2 2 2 2 2 2 3 2 2 3 3 3 3 2 2 2 2 3 3 2 2 2 1 1 1 0 1 1 1 2 3 3 2 1 1 1 1 1 2 2
2 2 2 2 2 2 2 2 3 3 4 3 3 3 4 4 4 4 3 3 3 3 3 1 1 1 1 1 1 0 1 1 2 2 2 2 2 2 2 2 1 1 2
2 2 2 2 2 2 2 2 2 3 3 3 3 3 4 4 4 3 3 4 4 5 4 2 2 2 2 2 2 1 1 1 2 2 2 2 2 2 2 2 2 2 3
2 3 2 2 2 2 2 2 2 2 1 1 0 1 2 3 3 2 2 2 3 6 3 2 2 3 2 2 2 1 1 1 1 2 2 2 2 2 2 2 2 2 3
1 2 2 2 1 1 2 2 2 2 1 2 2 2 1 2 2 2 3 4 2 2 1 2 2 2 2 2 2 2 1 1 1 1 2 2 2 2 2 3 3 3 3
1 1 1 1 1 1 1 0 1 1 1 0 2 2 3 3 4 4 4 3 1 1 1 1 1 1 1 1 1 1 2 2 2 2 2 2 2 2 2 3 3 3 4
1 1 0 0 0 1 0 0 0 1 1 1 1 1 2 3 3 3 2 1 1 0 1 1 1 1 1 1 1 1 1 1 1 2 2 2 2 2 3 4 4 3 4
1 1 2 1 1 1 1 1 1 1 1 1 1 1 2 2 1 1 1 1 1 1 1 1 1 0 1 1 1 1 1 2 2 2 2 2 2 2 3 3 4 4 4
0 0 1 0 1 1 1 1 2 2 1 1 1 1 1 1 1 0 1 1 1 1 1 1 1 1 1 1 1 1 2 2 2 2 2 2 2 3 3 3 3 3 3
1 1 1 1 1 1 1 1 2 2 1 1 1 1 1 1 0 0 1 1 0 0 0 0 0 0 0 1 1 1 2 2 2 2 2 2 2 2 3 3 4 3 3
1 1 1 1 1 1 1 1 1 1 1 1 1 0 0 0 1 1 0 0 1 1 1 0 0 0 1 1 1 1 2 2 2 2 3 2 2 2 2 3 3 3 4
1 1 1 1 1 1 1 1 1 1 0 0 0 0 0 0 0 1 1 1 1 1 1 1 0 1 1 1 1 1 2 1 1 1 1 2 2 2 2 3 3 3 3
1 1 1 1 1 1 1 1 1 1 1 0 0 0 0 0 0 1 1 1 1 1 1 1 2 2 2 1 2 2 2 1 1 1 1 1 1 1 2 2 3 3 3
Wind_Direction
194 202 211 214 216 217 224 231 230 232 223 219 215 210 213 214 210 211 225 226 225 233 233 227 231 221 217 220 212 211 217 217 247 270 256 276 273 277 299 294 283 268 260
194 194 207 205 200 216 231 239 234 233 230 224 215 215 223 225 217 217 230 230 228 235 235 228 231 225 219 219 215 221 224 219 229 259 270 269 259 261 269 276 280 272 261
182 183 195 202 204 220 230 229 235 239 245 238 219 219 225 227 228 229 230 233 237 238 233 227 230 220 222 220 217 225 230 227 222 239 261 264 269 262 267 275 273 271 271
185 189 207 218 217 219 216 208 209 218 237 243 233 225 224 224 227 230 228 226 235 238 234 231 231 224 224 222 219 220 220 221 219 229 253 266 265 263 251 262 276 269 274
187 203 220 225 220 215 212 211 206 215 231 227 232 236 234 227 228 230 232 230 229 239 243 240 238 229 223 221 223 215 208 215 220 230 246 255 254 247 250 247 264 276 272
192 216 225 211 203 214 223 214 211 221 228 219 224 234 239 241 234 222 217 222 225 227 236 244 246 234 224 218 218 211 202 211 218 222 238 247 255 250 253 254 258 267 271
186 210 217 209 211 219 231 230 227 229 228 232 234 230 237 238 228 218 201 193 203 213 215 214 231 225 203 224 230 227 228 225 210 210 229 242 247 243 242 252 247 248 257
210 214 220 217 224 228 219 230 240 235 228 227 229 226 237 243 227 215 196 191 197 208 208 200 202 222 211 198 218 246 256 249 238 228 235 245 247 245 232 237 247 256 265
232 230 230 218 221 226 226 235 235 231 234 229 225 226 235 250 232 213 198 198 203 216 218 208 204 218 227 181 189 239 272 280 262 246 248 252 258 251 226 219 230 246 271
236 239 240 225 222 231 237 241 243 236 239 235 241 242 236 247 240 214 189 188 201 217 226 224 214 218 227 197 208 224 249 266 281 289 289 295 286 273 230 215 219 232 259
248 235 231 235 229 234 245 244 239 234 234 241 250 259 252 251 250 223 194 193 202 207 216 232 240 236 235 224 218 224 233 242 250 257 277 290 295 285 263 242 222 220 235
255 252 255 259 262 272 251 259 246 225 223 242 256 277 277 265 249 234 209 205 200 205 215 222 228 236 238 233 227 232 229 215 219 251 280 289 293 297 295 286 265 244 242
253 263 273 275 271 263 240 250 263 242 234 248 247 259 276 275 256 228 215 210 203 204 213 210 217 223 234 222 201 215 198 186 195 238 266 274 281 287 302 311 315 309 308
266 268 264 259 269 272 260 244 239 237 230 236 249 256 260 258 257 250 228 214 204 199 206 194 188 179 171 181 151 184 186 192 205 228 249 269 292 302 301 301 292 307 307
271 276 281 271 252 246 249 245 243 249 239 224 236 236 242 255 261 242 215 213 208 197 164 149 142 146 156 149 166 207 201 202 218 229 240 263 281 291 295 297 272 274 273
273 268 264 264 258 246 243 287 285 253 264 239 225 221 241 243 257 252 228 206 190 168 154 174 195 203 206 210 219 232 225 219 223 226 236 252 269 279 289 294 282 272 280
262 267 270 270 261 246 231 230 275 325 356 298 257 186 221 234 234 231 207 179 163 153 161 194 205 212 215 211 214 223 240 243 233 227 232 240 252 265 272 280 287 289 289
286 294 293 276 272 254 237 223 218 228 280 343 12 43 86 127 121 110 119 114 107 130 176 198 207 210 207 206 213 222 232 234 228 228 234 240 240 250 265 275 279 283 286
293 301 311 305 306 278 265 248 229 221 212 14 18 26 46 80 83 87 104 104 139 166 194 217 223 214 204 204 220 225 221 228 237 238 240 241 240 240 254 265 272 273 273
293 305 2 11 20 35 43 100 113 126 119 74 34 21 58 76 73 75 81 86 121 185 196 208 220 203 201 208 215 222 233 247 258 262 263 260 255 249 255 260 260 264 266
311 348 47 63 81 90 88 114 117 115 108 81 23 33 114 123 133 122 138 182 203 216 218 211 203 195 227 232 229 234 241 256 262 267 267 266 262 261 264 263 264 263 266
44 42 52 63 65 77 77 93 105 110 107 96 45 43 111 118 122 151 221 237 237 227 212 190 201 228 234 240 242 242 246 254 259 260 260 263 265 264 265 266 269 273 272
102 100 97 90 101 100 100 100 104 105 104 103 94 71 75 90 128 242 262 273 319 8 61 143 182 268 292 265 248 240 252 257 252 242 243 256 269 276 275 273 273 279 282
117 121 131 127 121 127 132 129 119 114 106 104 93 72 36 259 244 258 276 355 47 31 22 99 154 271 320 321 310 283 271 272 266 242 235 243 262 281 289 287 285 286 286
121 132 140 146 142 145 154 163 157 144 123 116 88 92 81 58 39 33 48 59 65 47 11 341 315 303 307 301 308 308 305 296 282 263 231 235 256 271 284 290 298 303 301
103 110 122 137 149 152 158 180 196 194 186 168 142 135 119 101 63 56 57 51 37 28 6 337 327 318 315 318 315 310 303 308 306 274 210 210 245 288 308 306 308 311 313
Height
1504 1506 1507 1509 1511 1512 1513 1514 1515 1517 1518 1519 1520 1521 1522 1523 1524 1524 1525 1526 1527 1527 1528 1528 1528 1529 1530 1530 1531 1531 1531 1531 1530 1529 1529 1529 1529 1529 1528 1528 1527 1526 1526
1501 1503 1504 1506 1507 1508 1509 1511 1512 1513 1514 1515 1516 1516 1517 1518 1519 1520 1521 1522 1522 1523 1523 1524 1524 1525 1525 1525 1526 1526 1527 1527 1526 1525 1525 1525 1525 1524 1524 1523 1523 1522 1521
1499 1500 1502 1503 1504 1505 1506 1507 1508 1509 1510 1511 1512 1512 1513 1514 1515 1515 1517 1517 1518 1518 1519 1519 1519 1520 1520 1520 1521 1522 1522 1522 1522 1521 1520 1520 1520 1520 1519 1519 1518 1517 1517
1496 1497 1498 1499 1500 1501 1502 1503 1504 1505 1506 1506 1507 1507 1509 1510 1511 1511 1512 1512 1512 1513 1514 1515 1515 1516 1516 1516 1516 1517 1517 1518 1518 1517 1517 1516 1516 1515 1515 1514 1513 1513 1512
1493 1494 1495 1496 1497 1498 1498 1499 1499 1501 1501 1502 1503 1503 1505 1505 1506 1507 1507 1508 1508 1509 1509 1510 1510 1511 1511 1512 1512 1512 1512 1513 1513 1513 1512 1512 1511 1511 1510 1510 1509 1508 1507
1491 1492 1493 1493 1494 1494 1494 1495 1496 1496 1497 1498 1499 1500 1500 1501 1501 1502 1503 1503 1504 1504 1504 1505 1505 1506 1506 1507 1508 1508 1508 1508 1508 1508 1508 1507 1507 1506 1506 1505 1504 1503 1502
1488 1489 1490 1490 1490 1491 1491 1492 1492 1493 1493 1494 1495 1495 1496 1496 1497 1498 1498 1499 1500 1500 1500 1501 1501 1501 1502 1503 1503 1504 1504 1504 1504 1504 1503 1503 1502 1501 1501 1500 1500 1499 1498
1486 1486 1487 1487 1487 1487 1488 1488 1489 1489 1490 1490 1491 1491 1491 1492 1493 1493 1494 1494 1495 1496 1496 1496 1497 1497 1498 1499 1499 1499 1500 1500 1500 1499 1499 1498 1498 1497 1496 1496 1495 1495 1494
1482 1483 1483 1484 1484 1484 1484 1485 1486 1486 1486 1487 1487 1487 1488 1488 1489 1489 1490 1490 1491 1491 1492 1493 1493 1494 1494 1494 1495 1495 1495 1495 1496 1495 1495 1494 1494 1493 1492 1491 1490 1490 1488
1479 1480 1480 1481 1481 1481 1481 1482 1482 1483 1483 1483 1483 1483 1484 1484 1485 1485 1486 1486 1486 1487 1488 1489 1489 1490 1490 1490 1491 1491 1491 1491 1491 1491 1490 1490 1489 1488 1488 1487 1486 1485 1484
1477 1477 1478 1478 1478 1478 1478 1478 1478 1479 1479 1478 1479 1479 1480 1480 1481 1481 1482 1482 1482 1482 1483 1484 1485 1486 1487 1487 1487 1487 1487 1487 1487 1486 1486 1485 1484 1483 1483 1482 1481 1481 1480
1475 1475 1475 1475 1475 1475 1475 1475 1475 1475 1474 1474 1475 1475 1476 1476 1476 1477 1478 1478 1479 1479 1479 1480 1481 1482 1482 1482 1483 1483 1482 1483 1483 1482 1481 1481 1480 1479 1478 1478 1477 1477 1477
1472 1472 1472 1472 1472 1472 1472 1471 1471 1471 1471 1471 1470 1470 1471 1471 1472 1472 1473 1473 1474 1475 1476 1477 1477 1478 1478 1478 1478 1479 1479 1479 1478 1478 1477 1476 1476 1475 1475 1474 1473 1473 1472
1469 1469 1469 1468 1468 1468 1468 1468 1468 1467 1467 1466 1467 1466 1466 1467 1467 1468 1469 1470 1470 1471 1472 1472 1473 1474 1474 1474 1474 1475 1475 1475 1474 1474 1474 1473 1472 1472 1470 1469 1469 1468 1467
1466 1466 1466 1466 1465 1465 1465 1465 1464 1464 1464 1463 1462 1462 1463 1463 1463 1464 1465 1465 1466 1467 1467 1468 1468 1469 1469 1470 1470 1471 1471 1471 1471 1470 1470 1469 1468 1468 1467 1466 1465 1464 1463
1464 1464 1463 1463 1462 1462 1461 1461 1461 1462 1462 1461 1460 1460 1460 1460 1461 1461 1462 1462 1462 1463 1463 1463 1464 1464 1465 1465 1466 1467 1467 1467 1467 1467 1466 1465 1465 1464 1464 1463 1462 1461 1459
1462 1461 1460 1460 1459 1459 1459 1458 1458 1459 1459 1458 1458 1457 1457 1457 1458 1458 1458 1458 1459 1459 1459 1459 1460 1461 1462 1462 1463 1464 1464 1464 1463 1463 1462 1462 1461 1461 1460 1459 1458 1457 1456
1460 1459 1458 1458 1457 1457 1456 1456 1456 1456 1456 1455 1456 1456 1455 1454 1454 1454 1454 1455 1455 1455 1456 1456 1457 1458 1459 1459 1460 1460 1460 1460 1460 1459 1459 1458 1458 1457 1457 1456 1455 1454 1453
1458 1457 1456 1456 1455 1455 1455 1454 1454 1454 1454 1454 1454 1454 1453 1452 1452 1452 1452 1452 1452 1452 1453 1454 1455 1455 1456 1456 1457 1457 1457 1457 1456 1456 1455 1454 1454 1454 1453 1453 1452 1451 1450
1456 1456 1455 1455 1454 1454 1454 1453 1453 1453 1453 1452 1452 1452 1452 1451 1450 1450 1451 1451 1451 1451 1452 1452 1453 1454 1454 1454 1454 1454 1454 1454 1453 1453 1452 1451 1451 1451 1450 1450 1449 1448 1448
1455 1455 1454 1454 1454 1453 1453 1453 1452 1452 1452 1452 1452 1451 1451 1451 1450 1450 1451 1451 1451 1451 1451 1452 1452 1452 1452 1452 1452 1452 1451 1451 1451 1450 1449 1449 1449 1448 1447 1447 1446 1445 1444
1454 1454 1454 1454 1453 1453 1453 1453 1452 1452 1452 1451 1451 1451 1451 1451 1450 1450 1450 1450 1450 1451 1451 1451 1451 1451 1450 1450 1450 1450 1449 1449 1448 1447 1447 1446 1446 1445 1444 1443 1442 1442 1441
1453 1453 1453 1453 1452 1452 1452 1452 1452 1452 1451 1451 1451 1451 1450 1450 1450 1450 1450 1450 1450 1450 1449 1449 1449 1449 1449 1448 1448 1447 1447 1446 1445 1445 1444 1443 1442 1441 1440 1439 1438 1438 1437
1451 1452 1452 1452 1451 1451 1451 1451 1451 1451 1451 1451 1451 1450 1450 1450 1450 1450 1449 1449 1449 1449 1448 1448 1447 1447 1447 1446 1446 1445 1444 1444 1443 1442 1441 1440 1439 1438 1437 1436 1435 1434 1434
1450 1450 1450 1450 1451 1451 1451 1451 1451 1451 1451 1451 1450 1450 1450 1450 1450 1449 1449 1448 1448 1447 1447 1446 1445 1445 1445 1444 1443 1443 1442 1441 1440 1439 1439 1437 1436 1435 1434 1433 1432 1432 1431
1450 1450 1449 1450 1450 1450 1450 1450 1450 1450 1450 1450 1450 1450 1449 1449 1449 1448 1448 1447 1447 1446 1445 1445 1444 1443 1442 1441 1441 1440 1439 1439 1438 1437 1436 1435 1434 1433 1432 1431 1430 1430 1429